Вернуться в каталог

STARLINK-33883

АктивенСвязьVLEO
NORAD 63781·PAYLOAD·🇺🇸 United States

Запущен May 2, 2025 с Cape Canaveral Space Force Station

Loading…

Ближайшие Пролёты (ближайшие 24 часа)

TLE

СвежийSource: CelesTrak SupGP

Эпоха: Sep 15, 2026, 02:59 UTC

1 63781C 25091G   26258.12479167 -.00028337  00000+0 -10262-2 0  2587
2 63781  43.0009  62.9010 0001706 268.2650  12.8062 15.27597993    11

Отслеживайте STARLINK-33883 в реальном времени с AllMySat

Download on the App Store